Hourly Weather Luka

Today, 17 May, Monday

Time Temperature Precipitation Wind Pressure Humidity
00:00 +14°C° 0 mm 3 mps 745 mmHg 86%
01:00 +14°C° 0 mm 3 mps 745 mmHg 85%
02:00 +13°C° 0 mm 3 mps 745 mmHg 85%
03:00 +14°C° 0.1 mm 3 mps 744 mmHg 86%
04:00 +14°C° 0.1 mm 3 mps 744 mmHg 87%
05:00 +14°C° 0.1 mm 4 mps 743 mmHg 88%
06:00 +15°C° 0.8 mm 4 mps 743 mmHg 88%
07:00 +16°C° 0.8 mm 3 mps 742 mmHg 88%
08:00 +17°C° 0.8 mm 3 mps 742 mmHg 88%
09:00 +19°C° 0 mm 4 mps 742 mmHg 81%
10:00 +21°C° 0 mm 4 mps 741 mmHg 74%
11:00 +23°C° 0 mm 5 mps 741 mmHg 67%
12:00 +23°C° 0 mm 5 mps 741 mmHg 67%
13:00 +23°C° 0 mm 4 mps 741 mmHg 66%
14:00 +25°C° 0 mm 4 mps 740 mmHg 66%
15:00 +23°C° 0.1 mm 4 mps 740 mmHg 70%
16:00 +23°C° 0.1 mm 4 mps 740 mmHg 74%
17:00 +22°C° 0.1 mm 4 mps 740 mmHg 78%
18:00 +21°C° 0.2 mm 3 mps 740 mmHg 82%
19:00 +20°C° 0.2 mm 3 mps 740 mmHg 87%
20:00 +19°C° 0.2 mm 3 mps 739 mmHg 91%
21:00 +18°C° 0.4 mm 3 mps 739 mmHg 93%
22:00 +17°C° 0.4 mm 3 mps 739 mmHg 94%
23:00 +17°C° 0.4 mm 3 mps 739 mmHg 96%

Tomorrow, 18 May, Tuesday

Time Temperature Precipitation Wind Pressure Humidity
00:00 +16°C° 0 mm 3 mps 740 mmHg 97%
01:00 +16°C° 0 mm 3 mps 740 mmHg 98%
02:00 +14°C° 0 mm 3 mps 740 mmHg 98%
03:00 +15°C° 0 mm 2 mps 741 mmHg 98%
04:00 +15°C° 0 mm 2 mps 741 mmHg 98%
05:00 +15°C° 0 mm 2 mps 741 mmHg 98%
06:00 +16°C° 0 mm 2 mps 741 mmHg 94%
07:00 +17°C° 0 mm 2 mps 741 mmHg 91%
08:00 +18°C° 0 mm 2 mps 741 mmHg 87%
09:00 +18°C° 0.2 mm 2 mps 741 mmHg 85%
10:00 +19°C° 0.2 mm 2 mps 741 mmHg 82%
11:00 +19°C° 0.2 mm 3 mps 741 mmHg 80%
12:00 +20°C° 0.4 mm 3 mps 741 mmHg 78%
13:00 +20°C° 0.4 mm 3 mps 741 mmHg 75%
14:00 +21°C° 0.4 mm 3 mps 741 mmHg 73%
15:00 +20°C° 0.9 mm 4 mps 741 mmHg 78%
16:00 +19°C° 0.9 mm 4 mps 741 mmHg 83%
17:00 +17°C° 0.9 mm 4 mps 741 mmHg 88%
18:00 +17°C° 0.2 mm 4 mps 741 mmHg 90%
19:00 +16°C° 0.2 mm 3 mps 741 mmHg 92%
20:00 +14°C° 0.2 mm 3 mps 741 mmHg 94%
21:00 +14°C° 0 mm 3 mps 741 mmHg 94%
22:00 +13°C° 0 mm 3 mps 741 mmHg 95%
23:00 +13°C° 0 mm 3 mps 740 mmHg 95%

Day after tomorrow, 19 May, Wednesday

Time Temperature Precipitation Wind Pressure Humidity
00:00 +13°C° 0 mm 3 mps 740 mmHg 95%
01:00 +13°C° 0 mm 3 mps 740 mmHg 95%
02:00 +12°C° 0 mm 3 mps 740 mmHg 95%
03:00 +13°C° 0 mm 3 mps 740 mmHg 95%
04:00 +13°C° 0 mm 3 mps 740 mmHg 95%
05:00 +13°C° 0 mm 3 mps 740 mmHg 95%
06:00 +13°C° 0.1 mm 3 mps 741 mmHg 94%
07:00 +14°C° 0.1 mm 3 mps 741 mmHg 93%
08:00 +16°C° 0.1 mm 3 mps 741 mmHg 92%
09:00 +15°C° 0.1 mm 4 mps 741 mmHg 88%
10:00 +15°C° 0.1 mm 4 mps 741 mmHg 84%
11:00 +17°C° 0.1 mm 4 mps 741 mmHg 80%
12:00 +17°C° 0.1 mm 4 mps 741 mmHg 78%
13:00 +17°C° 0.1 mm 5 mps 741 mmHg 75%
14:00 +17°C° 0.1 mm 5 mps 741 mmHg 73%
15:00 +18°C° 0.1 mm 4 mps 741 mmHg 75%
16:00 +17°C° 0.1 mm 4 mps 741 mmHg 76%
17:00 +17°C° 0.1 mm 4 mps 741 mmHg 77%
18:00 +16°C° 0.1 mm 3 mps 741 mmHg 82%
19:00 +14°C° 0.1 mm 3 mps 741 mmHg 86%
20:00 +13°C° 0.1 mm 2 mps 741 mmHg 90%
21:00 +13°C° 0 mm 2 mps 741 mmHg 91%
22:00 +12°C° 0 mm 2 mps 741 mmHg 92%
23:00 +12°C° 0 mm 2 mps 741 mmHg 92%

20 May, Thursday

Time Temperature Precipitation Wind Pressure Humidity
00:00 +12°C° 0 mm 2 mps 742 mmHg 94%
01:00 +10°C° 0 mm 2 mps 742 mmHg 95%
02:00 +10°C° 0 mm 2 mps 742 mmHg 96%
03:00 +10°C° 0 mm 2 mps 742 mmHg 96%
04:00 +12°C° 0 mm 2 mps 742 mmHg 96%
05:00 +11°C° 0 mm 3 mps 742 mmHg 96%
06:00 +11°C° 0 mm 3 mps 742 mmHg 95%
07:00 +12°C° 0 mm 4 mps 743 mmHg 93%
08:00 +12°C° 0 mm 5 mps 743 mmHg 91%
09:00 +13°C° 0.1 mm 5 mps 744 mmHg 85%
10:00 +14°C° 0.1 mm 6 mps 744 mmHg 79%
11:00 +15°C° 0.1 mm 7 mps 745 mmHg 72%
12:00 +15°C° 0.1 mm 6 mps 745 mmHg 72%
13:00 +16°C° 0.1 mm 6 mps 746 mmHg 71%
14:00 +16°C° 0.1 mm 5 mps 746 mmHg 70%
15:00 +17°C° 0.2 mm 4 mps 746 mmHg 72%
16:00 +17°C° 0.2 mm 4 mps 746 mmHg 73%
17:00 +17°C° 0.2 mm 3 mps 746 mmHg 75%
18:00 +16°C° 0.1 mm 3 mps 747 mmHg 78%
19:00 +14°C° 0.1 mm 3 mps 747 mmHg 82%
20:00 +13°C° 0.1 mm 2 mps 747 mmHg 86%
21:00 +13°C° 0 mm 2 mps 747 mmHg 88%
22:00 +13°C° 0 mm 2 mps 748 mmHg 91%
23:00 +12°C° 0 mm 2 mps 748 mmHg 93%

21 May, Friday

Time Temperature Precipitation Wind Pressure Humidity
00:00 +12°C° 0 mm 2 mps 748 mmHg 93%
01:00 +12°C° 0 mm 2 mps 748 mmHg 94%
02:00 +12°C° 0 mm 2 mps 749 mmHg 94%
03:00 +12°C° 0 mm 2 mps 749 mmHg 94%
04:00 +12°C° 0 mm 2 mps 749 mmHg 94%
05:00 +13°C° 0 mm 2 mps 749 mmHg 94%
06:00 +13°C° 0 mm 2 mps 749 mmHg 93%
07:00 +13°C° 0 mm 2 mps 749 mmHg 92%
08:00 +14°C° 0 mm 2 mps 750 mmHg 91%
09:00 +14°C° 0.5 mm 2 mps 750 mmHg 93%
10:00 +14°C° 0.5 mm 2 mps 750 mmHg 94%
11:00 +14°C° 0.5 mm 2 mps 750 mmHg 95%
12:00 +15°C° 0.4 mm 2 mps 750 mmHg 92%
13:00 +15°C° 0.4 mm 1 mps 750 mmHg 89%
14:00 +16°C° 0.4 mm 1 mps 749 mmHg 86%
15:00 +15°C° 0.3 mm 1 mps 749 mmHg 89%
16:00 +15°C° 0.3 mm 1 mps 749 mmHg 92%
17:00 +14°C° 0.3 mm 2 mps 749 mmHg 94%
18:00 +14°C° 1.4 mm 1 mps 749 mmHg 95%
19:00 +14°C° 1.4 mm 1 mps 749 mmHg 97%
20:00 +13°C° 1.4 mm 1 mps 749 mmHg 98%
21:00 +13°C° 0.7 mm 1 mps 749 mmHg 98%
22:00 +13°C° 0.7 mm 2 mps 749 mmHg 98%
23:00 +13°C° 0.7 mm 2 mps 749 mmHg 98%

22 May, Saturday

Time Temperature Precipitation Wind Pressure Humidity
00:00 +12°C° 0.2 mm 2 mps 750 mmHg 97%
01:00 +12°C° 0.2 mm 2 mps 750 mmHg 96%
02:00 +12°C° 0.2 mm 2 mps 751 mmHg 96%
03:00 +10°C° 0 mm 2 mps 751 mmHg 95%
04:00 +10°C° 0 mm 2 mps 751 mmHg 95%
05:00 +9°C° 0 mm 2 mps 752 mmHg 95%
06:00 +12°C° 0 mm 2 mps 752 mmHg 90%
07:00 +12°C° 0 mm 3 mps 752 mmHg 85%
08:00 +14°C° 0 mm 3 mps 753 mmHg 80%
09:00 +16°C° 0 mm 3 mps 753 mmHg 75%
10:00 +17°C° 0 mm 3 mps 753 mmHg 70%
11:00 +18°C° 0 mm 3 mps 753 mmHg 64%
12:00 +18°C° 0 mm 3 mps 753 mmHg 64%
13:00 +19°C° 0 mm 3 mps 753 mmHg 63%
14:00 +19°C° 0 mm 2 mps 753 mmHg 62%
15:00 +19°C° 0 mm 2 mps 753 mmHg 66%
16:00 +19°C° 0 mm 2 mps 753 mmHg 70%
17:00 +19°C° 0 mm 3 mps 752 mmHg 75%
18:00 +18°C° 0 mm 3 mps 752 mmHg 79%
19:00 +16°C° 0 mm 3 mps 752 mmHg 83%
20:00 +14°C° 0 mm 3 mps 752 mmHg 87%
21:00 +14°C° 0 mm 3 mps 752 mmHg 88%
22:00 +14°C° 0 mm 3 mps 753 mmHg 89%
23:00 +15°C° 0 mm 2 mps 753 mmHg 89%
Show more

We Need Your Consent

Meteoprog and our Service Providers may store and access personal data such as cookies, device identifiers or other similar technologies on your device and process such data to personalise content and ads, as well as provide social media features and to analyse the traffic.

  • Store and/or access information on your device

    Cookies, device identifiers or other information can be stored or accessed on your device for the purposes indicated above.

  • Personalised ads and content, ad and content measurement, audience insights, and products development

    Ads and content can be personalised based on a profile. More data can be added to better personalise ads and content. Ad and content performance can be measured. Insights about the audience who saw the ads and content can be derived. Such data can be used to develop or improve user’s experience, systems and software.

By clicking ‘I Agree’ you will allow the use of indicated cookies, device identifiers, web beacons or other similar technologies. Your settings can be changed in the browser on your device.

For certain purposes, legitimate interests may be relied on, rather than consent. You can read more about this in our Privacy and Cookie Policy.